[[{"header":{"parameterUnit":"m.s-1","parameterCategory":1,"la1":30.2991,"la2":30.254,"lo1":-89.0895,"lo2":-89.0444,"dy":0.0017,"dx":0.0017,"nx":28,"ny":28,"refTime":"2025-05-25T03:00:00:Z","depth":0,"parameterNumber":2,"parameterNumberName":"U-component_of_WINDS"},"data":[0,0,0,0,0,0,0,0,0,0,0,0,0,0,0,0,0,0,0,0,0,0,0,0,0,0,0,0,0,0,0,0,0,0,0,0,0,0,0,0,0,0,0,0,0,0,0,0,0,0,0,0,0,0,0,0,0,0,-0.9237,-0.9237,0,-0.9181,-0.9181,-0.918,-0.9151,-0.9151,-0.9151,-0.9151,-0.9093,-0.9091,-0.909,0,0,0,0,0,0,0,0,0,0,0,0,0,-0.932,-0.9319,-0.9237,-0.9237,-0.9236,-0.9181,-0.9181,-0.918,-0.9151,-0.9151,-0.9151,-0.9151,-0.9093,-0.9092,-0.909,0,0,0,0,0,0,0,0,0,0,0,0,0,-0.9276,-0.9319,-0.9238,-0.9215,-0.9212,-0.9181,-0.9181,-0.918,-0.9151,-0.9151,-0.9151,-0.9151,-0.9094,-0.9092,-0.909,-0.9077,0,0,-0.9083,-0.9082,0,0,0,0,0,0,0,0,-0.9279,-0.9273,-0.9219,-0.9216,-0.9214,-0.9173,-0.9189,-0.9145,-0.9151,-0.9174,-0.9151,-0.9151,-0.912,-0.9115,-0.9105,-0.9074,-0.9072,-0.9083,-0.9081,-0.908,-0.908,0,0,0,0,0,0,0,-0.9282,-0.9276,-0.9215,-0.9218,-0.9215,-0.9208,-0.9202,-0.918,-0.9148,-0.9172,-0.917,-0.9164,-0.9118,-0.9107,-0.9103,-0.9071,-0.9083,-0.9081,-0.9079,-0.9078,-0.9027,-0.9027,0,0,0,0,0,0,-0.9289,-0.9278,-0.9217,-0.9213,-0.9247,-0.9206,-0.9199,-0.9186,-0.9148,-0.9142,-0.9164,-0.9162,-0.9111,-0.9106,-0.9101,-0.9084,-0.908,-0.9078,-0.9077,-0.9027,-0.9027,-0.9027,0,0,0,0,0,0,-0.9291,-0.9283,-0.9219,-0.9245,-0.9237,-0.9205,-0.919,-0.9185,-0.9174,-0.9142,-0.9136,-0.9158,-0.9111,-0.9104,-0.9083,-0.9081,-0.9077,-0.9075,-0.9027,-0.9027,-0.9027,-0.9049,0,0,0,0,0,0,-0.9293,-0.9284,-0.9279,-0.9245,-0.9235,-0.9202,-0.919,-0.9184,-0.917,-0.9168,-0.9135,-0.913,-0.911,-0.9087,-0.9081,-0.9078,-0.9073,-0.9027,-0.9027,-0.9027,-0.9048,-0.9049,-0.9051,0,0,0,0,0,-0.9296,-0.9287,-0.9279,-0.9271,-0.9228,-0.9202,-0.9196,-0.9174,-0.917,-0.9164,-0.9144,-0.9131,-0.9083,-0.9085,-0.9078,-0.9074,-0.9027,-0.9027,-0.9027,-0.9047,-0.9049,-0.9051,0,0,0,0,0,0,-0.9321,-0.9282,-0.9273,-0.9252,-0.9231,-0.9197,-0.9189,-0.9177,-0.9156,-0.9155,-0.9128,-0.9121,-0.9102,-0.9086,-0.9089,-0.906,-0.9054,-0.9052,-0.9071,-0.9073,-0.9074,-0.9078,-0.9071,0,0,0,0,0,-0.9324,-0.9306,-0.9274,-0.9259,-0.9249,-0.9221,-0.9209,-0.9194,-0.917,-0.9161,-0.9139,-0.9117,-0.9097,-0.9084,-0.9063,-0.9046,-0.9038,-0.904,-0.9041,-0.9043,-0.9042,-0.9031,-0.9032,-0.9027,-0.9027,-0.9027,0,0,-0.9331,-0.9307,-0.9298,-0.9264,-0.9245,-0.9227,-0.9214,-0.9195,-0.9182,-0.9158,-0.9137,-0.912,-0.9094,-0.9074,-0.9065,-0.906,-0.9041,-0.9043,-0.9044,-0.9042,-0.9031,-0.9032,-0.9032,-0.9027,-0.9027,-0.9027,0,0,-0.9333,-0.9314,-0.9299,-0.9281,-0.9253,-0.9235,-0.9232,-0.92,-0.9188,-0.9167,-0.9149,-0.9133,-0.9098,-0.908,-0.9067,-0.9063,-0.905,-0.9057,-0.9064,-0.9054,-0.9054,-0.9055,-0.9053,-0.9053,-0.9057,-0.9057,-0.9057,0,-0.9345,-0.9317,-0.9294,-0.9277,-0.9262,-0.924,-0.9226,-0.9209,-0.9177,-0.9167,-0.9163,-0.912,-0.9101,-0.9077,-0.9076,-0.9066,-0.9061,-0.9061,-0.9056,-0.9056,-0.9056,-0.9054,-0.9054,-0.9058,-0.9058,-0.9057,-0.9057,0,-0.9332,-0.9313,-0.9305,-0.9274,-0.9259,-0.9243,-0.9218,-0.9206,-0.9192,-0.9175,-0.9153,-0.9129,-0.9104,-0.9097,-0.9084,-0.9071,-0.907,-0.9061,-0.9054,-0.9058,-0.9056,-0.9055,-0.9059,-0.9059,-0.9058,-0.9058,0,0,-0.9348,-0.9305,-0.9302,-0.9288,-0.9256,-0.9241,-0.9225,-0.92,-0.919,-0.9168,-0.9154,-0.9126,-0.9118,-0.9102,-0.9087,-0.9078,-0.9077,-0.9071,-0.907,-0.9073,-0.9062,-0.9068,-0.9068,-0.9069,-0.9068,-0.9068,-0.9064,0,-0.9346,-0.9315,-0.9294,-0.9271,-0.9254,-0.9233,-0.9219,-0.9198,-0.9182,-0.9164,-0.9146,-0.9127,-0.9118,-0.9108,-0.9099,-0.9079,-0.9075,-0.9079,-0.9055,-0.9054,-0.9061,-0.9067,-0.9073,-0.907,-0.9063,-0.9063,-0.9063,0,-0.9338,-0.9317,-0.9293,-0.9263,-0.9255,-0.9243,-0.9219,-0.9203,-0.9179,-0.9167,-0.915,-0.9135,-0.9117,-0.9112,-0.9087,-0.909,-0.9079,-0.9068,-0.9067,-0.9064,-0.9058,-0.9063,-0.9069,-0.9068,-0.9062,-0.9062,-0.9062,0,-0.9352,-0.9318,-0.9299,-0.9287,-0.9252,-0.9244,-0.9229,-0.9205,-0.9192,-0.9171,-0.9162,-0.9139,-0.9127,-0.911,-0.9088,-0.9086,-0.9065,-0.9058,-0.9055,-0.9056,-0.9051,-0.9051,-0.9055,-0.9045,-0.9045,-0.9045,-0.9045,0,-0.9351,-0.9337,-0.9304,-0.9293,-0.9277,-0.9253,-0.9238,-0.9221,-0.92,-0.9185,-0.9166,-0.9152,-0.9125,-0.9108,-0.9092,-0.9073,-0.9068,-0.9058,-0.9054,-0.9059,-0.9061,-0.9051,-0.9051,-0.9045,-0.9045,-0.9045,-0.9045,0,-0.9364,-0.9341,-0.9319,-0.9288,-0.928,-0.9269,-0.9242,-0.923,-0.9213,-0.9194,-0.9189,-0.9161,-0.914,-0.9118,-0.9089,-0.9078,-0.906,-0.9055,-0.9069,-0.9066,-0.9064,-0.9064,-0.9061,-0.9059,-0.9051,-0.9051,-0.9051,0,-0.9364,-0.9353,-0.9321,-0.9309,-0.9295,-0.9276,-0.9263,-0.9239,-0.9226,-0.9198,-0.919,-0.9167,-0.9148,-0.9116,-0.9094,-0.9072,-0.9065,-0.9065,-0.9061,-0.9067,-0.9064,-0.9065,-0.9064,-0.9066,-0.9066,-0.9066,-0.9067,0,-0.9368,-0.9357,-0.9338,-0.9315,-0.93,-0.928,-0.9261,-0.9252,-0.9225,-0.9211,-0.919,-0.9175,-0.9146,-0.9124,-0.91,-0.9084,-0.9071,-0.9068,-0.9066,-0.9072,-0.908,-0.9075,-0.9071,-0.9068,-0.9068,-0.9068,-0.9068,-0.9068,-0.9374,-0.9363,-0.9339,-0.9318,-0.9301,-0.9283,-0.927,-0.9251,-0.9233,-0.9207,-0.9195,-0.9174,-0.915,-0.9116,-0.9101,-0.9084,-0.908,-0.9077,-0.9076,-0.9076,-0.9077,-0.9083,-0.908,-0.908,-0.908,-0.908,-0.9079,0,-0.9376,-0.936,-0.9341,-0.9314,-0.9298,-0.9287,-0.9265,-0.9252,-0.9233,-0.9213,-0.9195,-0.917,-0.9149,-0.9125,-0.9103,-0.9094,-0.9087,-0.9088,-0.9088,-0.9085,-0.9082,-0.9086,-0.9094,-0.9094,-0.9094,-0.9094,-0.9094,-0.9094,-0.9376,-0.9357,-0.9343,-0.9316,-0.9299,-0.9278,-0.9266,-0.9249,-0.9233,-0.9206,-0.9189,-0.9173,-0.9152,-0.9127,-0.9108,-0.9101,-0.9094,-0.9097,-0.9089,-0.9087,-0.9085,-0.9084,-0.9088,-0.9096,-0.9096,-0.9093,-0.9093,-0.9093]},{"header":{"parameterUnit":"m.s-1","parameterCategory":1,"la1":30.2991,"la2":30.254,"lo1":-89.0895,"lo2":-89.0444,"dy":0.0017,"dx":0.0017,"nx":28,"ny":28,"refTime":"2025-05-25T03:00:00:Z","depth":0,"parameterNumber":3,"parameterNumberName":"V-component_of_WINDS"},"data":[0,0,0,0,0,0,0,0,0,0,0,0,0,0,0,0,0,0,0,0,0,0,0,0,0,0,0,0,0,0,0,0,0,0,0,0,0,0,0,0,0,0,0,0,0,0,0,0,0,0,0,0,0,0,0,0,0,0,4.6271,4.6271,0,4.6304,4.6304,4.6305,4.6283,4.6282,4.6281,4.628,4.631,4.6312,4.6313,0,0,0,0,0,0,0,0,0,0,0,0,0,4.6185,4.6186,4.6271,4.6271,4.6272,4.6304,4.6305,4.6305,4.6284,4.6282,4.6281,4.628,4.6309,4.6311,4.6313,0,0,0,0,0,0,0,0,0,0,0,0,0,4.622,4.6187,4.6271,4.6265,4.6265,4.6304,4.6305,4.6305,4.6284,4.6282,4.6281,4.6279,4.6309,4.6311,4.6314,4.6359,0,0,4.6322,4.6323,0,0,0,0,0,0,0,0,4.6218,4.6223,4.6265,4.6266,4.6265,4.6288,4.6285,4.6323,4.6284,4.6276,4.628,4.6279,4.6304,4.6307,4.6316,4.636,4.6362,4.6322,4.6323,4.6324,4.6325,0,0,0,0,0,0,0,4.6216,4.6222,4.6284,4.6266,4.6266,4.6259,4.6263,4.6292,4.6298,4.6277,4.6276,4.628,4.6303,4.6313,4.6316,4.6362,4.6322,4.6324,4.6326,4.6327,4.6446,4.6447,0,0,0,0,0,0,4.6214,4.622,4.6283,4.6285,4.6238,4.6262,4.6266,4.6282,4.6297,4.6298,4.6281,4.6279,4.631,4.6313,4.6317,4.6372,4.6324,4.6327,4.6328,4.6444,4.6446,4.6448,0,0,0,0,0,0,4.6213,4.622,4.6281,4.6252,4.6259,4.6265,4.6284,4.6284,4.6294,4.6301,4.6301,4.6291,4.6309,4.6314,4.6349,4.6373,4.6328,4.633,4.6442,4.6445,4.6447,4.6481,0,0,0,0,0,0,4.621,4.622,4.6238,4.6253,4.6261,4.6314,4.6285,4.6285,4.6299,4.6296,4.631,4.6311,4.6308,4.6346,4.6352,4.6375,4.6332,4.644,4.6443,4.6446,4.6478,4.6484,4.649,0,0,0,0,0,4.6207,4.6245,4.6239,4.6247,4.6284,4.6316,4.632,4.6318,4.6301,4.6319,4.6323,4.631,4.6369,4.6349,4.6356,4.6381,4.6439,4.6442,4.6446,4.6475,4.6483,4.649,0,0,0,0,0,0,4.6231,4.6247,4.624,4.6284,4.6299,4.6312,4.6334,4.6326,4.6345,4.6341,4.6336,4.6339,4.6376,4.6382,4.636,4.6426,4.6401,4.6406,4.6421,4.6428,4.6434,4.6432,4.6334,0,0,0,0,0,4.6242,4.6268,4.6279,4.6317,4.6325,4.6328,4.6342,4.6339,4.6353,4.6359,4.6366,4.6379,4.64,4.6415,4.6435,4.6478,4.6481,4.6499,4.6505,4.651,4.6514,4.6538,4.6546,4.646,4.646,4.646,0,0,4.6264,4.6275,4.6292,4.6322,4.6333,4.6359,4.6334,4.6361,4.638,4.6362,4.6397,4.6403,4.6417,4.6457,4.6475,4.6463,4.6539,4.6514,4.6518,4.652,4.6543,4.6551,4.6558,4.6463,4.6462,4.6462,0,0,4.6317,4.6328,4.6361,4.6373,4.6391,4.6393,4.6401,4.6416,4.6419,4.6454,4.6442,4.6463,4.65,4.6511,4.6521,4.6579,4.6568,4.6586,4.6617,4.6641,4.6648,4.6654,4.6675,4.6682,4.659,4.659,4.659,0,4.6341,4.6381,4.6379,4.6409,4.6422,4.6409,4.6442,4.6453,4.6475,4.6485,4.6471,4.6518,4.6526,4.6569,4.6584,4.6592,4.6601,4.6584,4.6647,4.6653,4.6659,4.6679,4.6687,4.6592,4.6592,4.6592,4.6592,0,4.641,4.6438,4.6462,4.6487,4.6503,4.6534,4.6535,4.6552,4.6547,4.6551,4.6586,4.6596,4.6618,4.6628,4.6623,4.667,4.6662,4.6648,4.6623,4.6669,4.6688,4.6695,4.6595,4.6595,4.6594,4.6593,0,0,4.6479,4.6503,4.6512,4.6523,4.6542,4.6563,4.6593,4.6616,4.663,4.6646,4.6671,4.6703,4.669,4.6702,4.6698,4.6718,4.6764,4.6701,4.6702,4.6713,4.6817,4.6829,4.6838,4.6757,4.6758,4.6759,4.6816,0,4.6534,4.6589,4.6588,4.6638,4.6664,4.6651,4.6677,4.6691,4.6695,4.6716,4.6719,4.6743,4.6723,4.6731,4.675,4.6755,4.6785,4.675,4.6779,4.678,4.6777,4.6847,4.6859,4.6913,4.6824,4.6825,4.6826,0,4.6605,4.6626,4.6679,4.6695,4.6706,4.6729,4.6751,4.6772,4.6786,4.6788,4.6801,4.6794,4.6824,4.6798,4.6838,4.6815,4.6826,4.683,4.6832,4.6835,4.6806,4.6853,4.6929,4.6938,4.6837,4.6836,4.6835,0,4.6651,4.6692,4.673,4.6739,4.6758,4.6775,4.6784,4.6797,4.6812,4.683,4.6839,4.686,4.6871,4.6887,4.6885,4.6867,4.6926,4.69,4.6928,4.6928,4.6941,4.6941,4.7022,4.6948,4.6948,4.6947,4.6947,0,4.6713,4.6746,4.6751,4.6774,4.681,4.6808,4.6844,4.6851,4.6863,4.6886,4.6876,4.6897,4.6894,4.6915,4.6914,4.6947,4.6952,4.6954,4.6953,4.6955,4.6955,4.6963,4.696,4.695,4.6949,4.6949,4.6948,0,4.6771,4.6775,4.6816,4.6831,4.6836,4.6862,4.6874,4.6896,4.6899,4.6928,4.6935,4.6939,4.6964,4.6964,4.6991,4.699,4.7032,4.7027,4.7028,4.7027,4.7055,4.7053,4.7144,4.7156,4.7074,4.7075,4.7075,0,4.6811,4.6837,4.6855,4.6871,4.6881,4.6906,4.6921,4.692,4.6936,4.6955,4.6974,4.6998,4.7017,4.7057,4.7062,4.7083,4.7078,4.7109,4.7081,4.7083,4.708,4.7079,4.7081,4.7115,4.7115,4.7116,4.7117,0,4.6881,4.6882,4.6905,4.693,4.6948,4.6967,4.6984,4.6997,4.6997,4.7015,4.7041,4.7056,4.7085,4.7109,4.713,4.7136,4.7127,4.7125,4.7133,4.7136,4.7136,4.7137,4.7043,4.7123,4.7123,4.7122,4.7122,4.7122,4.6931,4.6954,4.6971,4.6998,4.7011,4.7027,4.7048,4.7055,4.7077,4.7102,4.7099,4.7128,4.7142,4.7168,4.7177,4.7199,4.7188,4.7199,4.7202,4.7205,4.7209,4.7132,4.7203,4.7202,4.7202,4.7202,4.7202,0,4.7002,4.7013,4.7037,4.7062,4.7083,4.7073,4.7091,4.7109,4.7135,4.7149,4.7169,4.7199,4.7222,4.7229,4.7251,4.7267,4.7264,4.7273,4.7273,4.7274,4.7216,4.7208,4.7276,4.7276,4.7276,4.7276,4.7276,4.7276,4.7041,4.7079,4.7082,4.7126,4.7136,4.7166,4.7178,4.7192,4.7204,4.7239,4.7259,4.7263,4.7275,4.7298,4.7318,4.732,4.7328,4.734,4.734,4.7286,4.7278,4.7271,4.7263,4.7342,4.7342,4.7396,4.7396,4.7397]}]]